Retour au catalogue

DELTA 1 DEB

ActifLEO
NORAD 10706·DEBRIS·🇺🇸 United States

Lancé Jul 29, 1976 depuis Vandenberg Space Force Base

Loading…

Prochains Passages (prochaines 24 heures)

TLE

FraisSource: Space-Track

Époque: Sep 14, 2026, 03:00 UTC

1 10706U 76077AB  26257.12510123  .00000296  00000-0  10384-2 0  9993
2 10706 101.5283 122.6837 0394233 319.2195 197.0536 12.83381578330888

Suivez DELTA 1 DEB en temps réel avec AllMySat

Download on the App Store